Time,TemperatureF,DewpointF,PressureIn,WindDirection,WindDirectionDegrees,WindSpeedMPH,WindSpeedGustMPH,Humidity,HourlyPrecipIn,Conditions,Clouds,dailyrainin,SoftwareType,DateUTC
2013-03-04 00:01:00,8.0,2.0,-100.00,WSW,255,0.0,1.0,76,-99.99,,,-99.99,,2013-03-04 06:01:00,
2013-03-04 00:22:00,7.0,2.0,-100.00,NNW,335,0.0,0.0,80,-99.99,,,-99.99,,2013-03-04 06:22:00,
2013-03-04 00:32:00,7.0,2.0,-100.00,NNW,335,0.0,0.0,80,-99.99,,,-99.99,,2013-03-04 06:32:00,
2013-03-04 00:42:00,7.0,2.0,-100.00,NNW,335,0.0,0.0,80,-99.99,,,-99.99,,2013-03-04 06:42:00,
2013-03-04 00:52:00,7.0,2.0,-100.00,NNW,335,0.0,0.0,80,-99.99,,,-99.99,,2013-03-04 06:52:00,
2013-03-04 01:01:00,7.0,2.0,-100.00,NNW,335,0.0,0.0,80,-99.99,,,-99.99,,2013-03-04 07:01:00,
2013-03-04 01:02:00,6.0,2.0,-100.00,NNE,15,0.0,0.0,83,-99.99,,,-99.99,,2013-03-04 07:02:00,
2013-03-04 01:22:00,6.0,2.0,-100.00,NNE,15,0.0,0.0,83,-99.99,,,-99.99,,2013-03-04 07:22:00,
2013-03-04 01:32:00,6.0,2.0,-100.00,NNE,15,0.0,0.0,83,-99.99,,,-99.99,,2013-03-04 07:32:00,
2013-03-04 01:42:00,6.0,2.0,-100.00,NNE,15,0.0,0.0,83,-99.99,,,-99.99,,2013-03-04 07:42:00,
2013-03-04 01:52:00,6.0,2.0,-100.00,NNE,15,0.0,0.0,83,-99.99,,,-99.99,,2013-03-04 07:52:00,
2013-03-04 02:22:00,6.0,2.0,-100.00,NNE,15,0.0,0.0,84,-99.99,,,-99.99,,2013-03-04 08:22:00,
2013-03-04 02:32:00,6.0,2.0,-100.00,NNE,15,0.0,0.0,84,-99.99,,,-99.99,,2013-03-04 08:32:00,
2013-03-04 02:42:00,6.0,2.0,-100.00,NNE,15,0.0,0.0,84,-99.99,,,-99.99,,2013-03-04 08:42:00,
2013-03-04 02:52:00,6.0,2.0,-100.00,NNE,15,0.0,0.0,84,-99.99,,,-99.99,,2013-03-04 08:52:00,
2013-03-04 03:01:00,6.0,2.0,-100.00,NNE,15,0.0,0.0,84,-99.99,,,-99.99,,2013-03-04 09:01:00,
2013-03-04 03:22:00,6.0,3.0,-100.00,NNE,15,0.0,0.0,84,-99.99,,,-99.99,,2013-03-04 09:22:00,
2013-03-04 03:32:00,6.0,3.0,-100.00,NNE,15,0.0,0.0,84,-99.99,,,-99.99,,2013-03-04 09:32:00,
2013-03-04 03:42:00,6.0,3.0,-100.00,NNE,15,0.0,0.0,84,-99.99,,,-99.99,,2013-03-04 09:42:00,
2013-03-04 03:52:00,6.0,3.0,-100.00,NNE,15,0.0,0.0,84,-99.99,,,-99.99,,2013-03-04 09:52:00,
2013-03-04 04:01:00,6.0,3.0,-100.00,NNE,15,0.0,0.0,84,-99.99,,,-99.99,,2013-03-04 10:01:00,
2013-03-04 04:22:00,6.0,3.0,-100.00,NW,320,0.0,1.0,85,-99.99,,,-99.99,,2013-03-04 10:22:00,
2013-03-04 04:32:00,6.0,3.0,-100.00,NW,320,0.0,1.0,85,-99.99,,,-99.99,,2013-03-04 10:32:00,
2013-03-04 04:42:00,6.0,3.0,-100.00,NW,320,0.0,1.0,85,-99.99,,,-99.99,,2013-03-04 10:42:00,
2013-03-04 04:52:00,6.0,3.0,-100.00,NW,320,0.0,1.0,85,-99.99,,,-99.99,,2013-03-04 10:52:00,
2013-03-04 05:01:00,6.0,3.0,-100.00,NW,320,0.0,1.0,85,-99.99,,,-99.99,,2013-03-04 11:01:00,
2013-03-04 05:22:00,8.0,4.0,-100.00,NNE,25,1.0,2.0,85,-99.99,,,-99.99,,2013-03-04 11:22:00,
2013-03-04 05:32:00,8.0,4.0,-100.00,NNE,25,1.0,2.0,85,-99.99,,,-99.99,,2013-03-04 11:32:00,
2013-03-04 05:42:00,8.0,4.0,-100.00,NNE,25,1.0,2.0,85,-99.99,,,-99.99,,2013-03-04 11:42:00,
2013-03-04 05:52:00,8.0,4.0,-100.00,NNE,25,1.0,2.0,85,-99.99,,,-99.99,,2013-03-04 11:52:00,
2013-03-04 06:01:00,8.0,4.0,-100.00,NNE,25,1.0,2.0,85,-99.99,,,-99.99,,2013-03-04 12:01:00,
2013-03-04 06:02:00,10.0,6.0,-100.00,North,350,0.0,12.0,85,-99.99,,,-99.99,,2013-03-04 12:02:00,
2013-03-04 06:22:00,10.0,6.0,-100.00,North,350,0.0,12.0,85,-99.99,,,-99.99,,2013-03-04 12:22:00,
2013-03-04 06:32:00,10.0,6.0,-100.00,North,350,0.0,12.0,85,-99.99,,,-99.99,,2013-03-04 12:32:00,
2013-03-04 06:42:00,10.0,6.0,-100.00,North,350,0.0,12.0,85,-99.99,,,-99.99,,2013-03-04 12:42:00,
2013-03-04 06:53:00,10.0,6.0,-100.00,North,350,0.0,12.0,85,-99.99,,,-99.99,,2013-03-04 12:53:00,
2013-03-04 07:22:00,14.0,9.0,-100.00,WNW,300,0.0,19.0,82,-99.99,,,-99.99,,2013-03-04 13:22:00,
2013-03-04 07:32:00,14.0,9.0,-100.00,WNW,300,0.0,19.0,82,-99.99,,,-99.99,,2013-03-04 13:32:00,
2013-03-04 07:42:00,14.0,9.0,-100.00,WNW,300,0.0,19.0,82,-99.99,,,-99.99,,2013-03-04 13:42:00,
2013-03-04 07:52:00,14.0,9.0,-100.00,WNW,300,0.0,19.0,82,-99.99,,,-99.99,,2013-03-04 13:52:00,
2013-03-04 08:01:00,14.0,9.0,-100.00,WNW,300,0.0,19.0,82,-99.99,,,-99.99,,2013-03-04 14:01:00,
2013-03-04 08:22:00,21.0,12.0,-100.00,North,0,1.0,46.0,69,-99.99,,,-99.99,,2013-03-04 14:22:00,
2013-03-04 08:32:00,21.0,12.0,-100.00,North,0,1.0,46.0,69,-99.99,,,-99.99,,2013-03-04 14:32:00,
2013-03-04 08:42:00,21.0,12.0,-100.00,North,0,1.0,46.0,69,-99.99,,,-99.99,,2013-03-04 14:42:00,
2013-03-04 08:52:00,21.0,12.0,-100.00,North,0,1.0,46.0,69,-99.99,,,-99.99,,2013-03-04 14:52:00,
2013-03-04 09:01:00,21.0,12.0,-100.00,North,0,1.0,46.0,69,-99.99,,,-99.99,,2013-03-04 15:01:00,
2013-03-04 09:02:00,29.0,13.0,-100.00,North,5,3.0,6.0,52,-99.99,,,-99.99,,2013-03-04 15:02:00,
2013-03-04 09:22:00,29.0,13.0,-100.00,North,5,3.0,6.0,52,-99.99,,,-99.99,,2013-03-04 15:22:00,
2013-03-04 09:32:00,29.0,13.0,-100.00,North,5,3.0,6.0,52,-99.99,,,-99.99,,2013-03-04 15:32:00,
2013-03-04 09:42:00,29.0,13.0,-100.00,North,5,3.0,6.0,52,-99.99,,,-99.99,,2013-03-04 15:42:00,
2013-03-04 09:52:00,29.0,13.0,-100.00,North,5,3.0,6.0,52,-99.99,,,-99.99,,2013-03-04 15:52:00,
2013-03-04 10:02:00,32.0,16.0,-100.00,ENE,75,6.0,9.0,52,-99.99,,,-99.99,,2013-03-04 16:02:00,
2013-03-04 10:22:00,32.0,16.0,-100.00,ENE,75,6.0,9.0,52,-99.99,,,-99.99,,2013-03-04 16:22:00,
2013-03-04 10:32:00,32.0,16.0,-100.00,ENE,75,6.0,9.0,52,-99.99,,,-99.99,,2013-03-04 16:32:00,
2013-03-04 10:42:00,32.0,16.0,-100.00,ENE,75,6.0,9.0,52,-99.99,,,-99.99,,2013-03-04 16:42:00,
2013-03-04 10:52:00,32.0,16.0,-100.00,ENE,75,6.0,9.0,52,-99.99,,,-99.99,,2013-03-04 16:52:00,
2013-03-04 11:22:00,33.0,17.0,-100.00,NE,40,7.0,16.0,51,-99.99,,,-99.99,,2013-03-04 17:22:00,
2013-03-04 11:32:00,33.0,17.0,-100.00,NE,40,7.0,16.0,51,-99.99,,,-99.99,,2013-03-04 17:32:00,
2013-03-04 11:42:00,33.0,17.0,-100.00,NE,40,7.0,16.0,51,-99.99,,,-99.99,,2013-03-04 17:42:00,
2013-03-04 11:52:00,33.0,17.0,-100.00,NE,40,7.0,16.0,51,-99.99,,,-99.99,,2013-03-04 17:52:00,
2013-03-04 12:01:00,33.0,17.0,-100.00,NE,40,7.0,16.0,51,-99.99,,,-99.99,,2013-03-04 18:01:00,
2013-03-04 12:02:00,34.0,15.0,-100.00,ENE,65,9.0,14.0,45,-99.99,,,-99.99,,2013-03-04 18:02:00,
2013-03-04 12:22:00,34.0,15.0,-100.00,ENE,65,9.0,14.0,45,-99.99,,,-99.99,,2013-03-04 18:22:00,
2013-03-04 12:32:00,34.0,15.0,-100.00,ENE,65,9.0,14.0,45,-99.99,,,-99.99,,2013-03-04 18:32:00,
2013-03-04 12:42:00,34.0,15.0,-100.00,ENE,65,9.0,14.0,45,-99.99,,,-99.99,,2013-03-04 18:42:00,
2013-03-04 12:52:00,34.0,15.0,-100.00,ENE,65,9.0,14.0,45,-99.99,,,-99.99,,2013-03-04 18:52:00,
2013-03-04 13:22:00,34.0,15.0,-100.00,ENE,60,6.0,13.0,46,-99.99,,,-99.99,,2013-03-04 19:22:00,
2013-03-04 13:32:00,34.0,15.0,-100.00,ENE,60,6.0,13.0,46,-99.99,,,-99.99,,2013-03-04 19:32:00,
2013-03-04 13:42:00,34.0,15.0,-100.00,ENE,60,6.0,13.0,46,-99.99,,,-99.99,,2013-03-04 19:42:00,
2013-03-04 13:52:00,34.0,15.0,-100.00,ENE,60,6.0,13.0,46,-99.99,,,-99.99,,2013-03-04 19:52:00,
2013-03-04 14:01:00,34.0,15.0,-100.00,ENE,60,6.0,13.0,46,-99.99,,,-99.99,,2013-03-04 20:01:00,
2013-03-04 14:02:00,33.0,17.0,-100.00,NE,40,9.0,14.0,51,-99.99,,,-99.99,,2013-03-04 20:02:00,
2013-03-04 14:22:00,33.0,17.0,-100.00,NE,40,9.0,14.0,51,-99.99,,,-99.99,,2013-03-04 20:22:00,
2013-03-04 14:32:00,33.0,17.0,-100.00,NE,40,9.0,14.0,51,-99.99,,,-99.99,,2013-03-04 20:32:00,
2013-03-04 14:42:00,33.0,17.0,-100.00,NE,40,9.0,14.0,51,-99.99,,,-99.99,,2013-03-04 20:42:00,
2013-03-04 14:52:00,33.0,17.0,-100.00,NE,40,9.0,14.0,51,-99.99,,,-99.99,,2013-03-04 20:52:00,
2013-03-04 15:22:00,30.0,20.0,-100.00,ENE,60,9.0,17.0,67,-99.99,,,-99.99,,2013-03-04 21:22:00,
2013-03-04 15:32:00,30.0,20.0,-100.00,ENE,60,9.0,17.0,67,-99.99,,,-99.99,,2013-03-04 21:32:00,
2013-03-04 15:43:00,30.0,20.0,-100.00,ENE,60,9.0,17.0,67,-99.99,,,-99.99,,2013-03-04 21:43:00,
2013-03-04 15:53:00,30.0,20.0,-100.00,ENE,60,9.0,17.0,67,-99.99,,,-99.99,,2013-03-04 21:53:00,
2013-03-04 16:01:00,30.0,20.0,-100.00,ENE,60,9.0,17.0,67,-99.99,,,-99.99,,2013-03-04 22:01:00,
2013-03-04 16:22:00,29.0,20.0,-100.00,NNE,25,7.0,16.0,68,-99.99,,,-99.99,,2013-03-04 22:22:00,
2013-03-04 16:32:00,29.0,20.0,-100.00,NNE,25,7.0,16.0,68,-99.99,,,-99.99,,2013-03-04 22:32:00,
2013-03-04 16:43:00,29.0,20.0,-100.00,NNE,25,7.0,16.0,68,-99.99,,,-99.99,,2013-03-04 22:43:00,
2013-03-04 16:52:00,29.0,20.0,-100.00,NNE,25,7.0,16.0,68,-99.99,,,-99.99,,2013-03-04 22:52:00,
2013-03-04 17:01:00,29.0,20.0,-100.00,NNE,25,7.0,16.0,68,-99.99,,,-99.99,,2013-03-04 23:01:00,
2013-03-04 17:02:00,29.0,19.0,-100.00,NE,35,6.0,14.0,67,-99.99,,,-99.99,,2013-03-04 23:02:00,
2013-03-04 17:22:00,29.0,19.0,-100.00,NE,35,6.0,14.0,67,-99.99,,,-99.99,,2013-03-04 23:22:00,
2013-03-04 17:32:00,29.0,19.0,-100.00,NE,35,6.0,14.0,67,-99.99,,,-99.99,,2013-03-04 23:32:00,
2013-03-04 17:42:00,29.0,19.0,-100.00,NE,35,6.0,14.0,67,-99.99,,,-99.99,,2013-03-04 23:42:00,
2013-03-04 17:52:00,29.0,19.0,-100.00,NE,35,6.0,14.0,67,-99.99,,,-99.99,,2013-03-04 23:52:00,
2013-03-04 18:22:00,28.0,19.0,-100.00,NNE,20,7.0,13.0,68,-99.99,,,-99.99,,2013-03-05 00:22:00,
2013-03-04 18:32:00,28.0,19.0,-100.00,NNE,20,7.0,13.0,68,-99.99,,,-99.99,,2013-03-05 00:32:00,
2013-03-04 18:42:00,28.0,19.0,-100.00,NNE,20,7.0,13.0,68,-99.99,,,-99.99,,2013-03-05 00:42:00,
2013-03-04 18:52:00,28.0,19.0,-100.00,NNE,20,7.0,13.0,68,-99.99,,,-99.99,,2013-03-05 00:52:00,
2013-03-04 19:01:00,28.0,19.0,-100.00,NNE,20,7.0,13.0,68,-99.99,,,-99.99,,2013-03-05 01:01:00,
2013-03-04 19:22:00,28.0,19.0,-100.00,NNE,30,5.0,11.0,69,-99.99,,,-99.99,,2013-03-05 01:22:00,
2013-03-04 19:33:00,28.0,19.0,-100.00,NNE,30,5.0,11.0,69,-99.99,,,-99.99,,2013-03-05 01:33:00,
2013-03-04 19:42:00,28.0,19.0,-100.00,NNE,30,5.0,11.0,69,-99.99,,,-99.99,,2013-03-05 01:42:00,
2013-03-04 19:52:00,28.0,19.0,-100.00,NNE,30,5.0,11.0,69,-99.99,,,-99.99,,2013-03-05 01:52:00,
2013-03-04 20:01:00,28.0,19.0,-100.00,NNE,30,5.0,11.0,69,-99.99,,,-99.99,,2013-03-05 02:01:00,
2013-03-04 20:02:00,29.0,20.0,-100.00,North,10,3.0,7.0,69,-99.99,,,-99.99,,2013-03-05 02:02:00,
2013-03-04 20:22:00,29.0,20.0,-100.00,North,10,3.0,7.0,69,-99.99,,,-99.99,,2013-03-05 02:22:00,
2013-03-04 20:32:00,29.0,20.0,-100.00,North,10,3.0,7.0,69,-99.99,,,-99.99,,2013-03-05 02:32:00,
2013-03-04 20:42:00,29.0,20.0,-100.00,North,10,3.0,7.0,69,-99.99,,,-99.99,,2013-03-05 02:42:00,
2013-03-04 20:52:00,29.0,20.0,-100.00,North,10,3.0,7.0,69,-99.99,,,-99.99,,2013-03-05 02:52:00,
2013-03-04 22:02:00,30.0,22.0,-100.00,NE,35,3.0,9.0,71,-99.99,,,-99.99,,2013-03-05 04:02:00,
2013-03-04 22:22:00,30.0,22.0,-100.00,NE,35,3.0,9.0,71,-99.99,,,-99.99,,2013-03-05 04:22:00,
2013-03-04 22:32:00,30.0,22.0,-100.00,NE,35,3.0,9.0,71,-99.99,,,-99.99,,2013-03-05 04:32:00,
2013-03-04 22:42:00,30.0,22.0,-100.00,NE,35,3.0,9.0,71,-99.99,,,-99.99,,2013-03-05 04:42:00,
2013-03-04 22:52:00,30.0,22.0,-100.00,NE,35,3.0,9.0,71,-99.99,,,-99.99,,2013-03-05 04:52:00,
2013-03-04 23:22:00,30.0,21.0,-100.00,NNE,30,6.0,11.0,68,-99.99,,,-99.99,,2013-03-05 05:22:00,
2013-03-04 23:32:00,30.0,21.0,-100.00,NNE,30,6.0,11.0,68,-99.99,,,-99.99,,2013-03-05 05:32:00,
2013-03-04 23:42:00,30.0,21.0,-100.00,NNE,30,6.0,11.0,68,-99.99,,,-99.99,,2013-03-05 05:42:00,
2013-03-04 23:52:00,30.0,21.0,-100.00,NNE,30,6.0,11.0,68,-99.99,,,-99.99,,2013-03-05 05:52:00,